STARLINK-35348, 65904

Orbit data source: Space-Track

STARLINK-35348, 65904 is a payload satellite owned by SpaceX/Seattle (US) in LEO that was launched on Tue, 07 Oct 2025 UTC via an FALCON 9 launch vehicle from the Air Force Eastern Test Range (AFETR). Payload-class satellites include a variety of spacecraft equipped with specific instruments for various scientific and technological missions. These include communications satellites like Starlink; space stations such as the ISS; scientific satellites like the Hubble; Earth observation satellites from companies like Planet Labs, Umbra, and HawkEye 360; GPS; miniature CubeSats for education and research; and military/defense satellites.

Loading next visibility...
Identifier
65904, 2025-224Y
Orbit
LEO
Country
Flag of USUS
Related business
Manufacturer
SpaceX/Seattle
Mission
Operational Commercial Communications
Bus & Motor
STARLINK V2MO, Unknown motor
Mass
575 kg wet, ~530 kg dry
Launch date (UTC)
2025-10-07 (5 months ago)
Launch vehicle
FALCON 9
Launch site
Air Force Eastern Test Range (AFETR)
Object type
Payload
Rocket body
Debris
Shape & HBR
Box + 2 Pan, 17.7 m
Radar Cross Section
36.964 m²

Expand to show TLE details & history
Last TLE update: 17 hours ago

TLE from 17 hours ago
0 STARLINK-35348
1 65904U 25224Y   26062.19957421  .00027243  00000-0  92840-3 0  9997
2 65904  53.1617  41.2743 0001272  69.6413 290.4725 15.30205128 23833
Epoch: 2026-03-03T04:47Z
TLE epoch observation values (Epoch: 2026-03-03T04:47:23.211Z)
Latitude
0.00002°
Longitude
168.44554°
Altitude
475.795 km
Speed
7.629 km/s
True Right ascension
02h 45m 05s
True Declination
0° 00' 00"
Sunlit
Object was in daylight at epoch
Visualization orbit readout
Latitude
Unknown
Longitude
Unknown
Altitude
Unknown
Speed
Unknown
Apparent Right ascension
Unknown
Apparent Declination
Unknown
Sunlit
N/A
Visualization observer readout
Local Sidereal Time
01:13:54
Azimuth
Unknown
Elevation
Unknown
Doppler factor
Unknown
Orbital elements
Apogee altitude
476.328 km
Perigee altitude
474.584 km
Semi-major axis
6,853.593 km
Eccentricity
0.00013
Inclination
53.1617°
RAAN
41.2743°
Arg. of periapsis
69.6413°
True anomaly
290.45884°
Mean anomaly
290.4725°
Eccentric anomaly
290.46567°
Mean motion
3.8253 °/min
Orbital period
94.11 mins
BSTAR
0.0009284
Loading maneuver chart data...
Computing Atmospheric mass density...
Loading historical data...
Loading historical data...
Loading historical data...
Loading historical data...
Loading historical data...
Loading historical data...
Loading historical data...

Documentation

Showing up to 5 results
|